N1936L KOSH-KCLE

Flight info

Callsign N1936L
Flight time 1h 44m
Altitude 21000
Route CYNDI BULLY POSIE STIEN
Aircraft S22T/L-BGRSVY/CU1

Departure

Time 2026-04-19 23:22
Airport Wittman Regional Airport (KOSH)

Arrival

Time 2026-04-20 01:06
Airport Cleveland Hopkins International Airport (KCLE)
Time Latitude Longitude Altitude Speed Heading
2026-04-19 23:07 43.97318 -88.55862 811 ft 0 kts 124°
2026-04-19 23:17 43.97317 -88.55860 811 ft 2 kts 124°
2026-04-19 23:17 43.97313 -88.55849 811 ft 1 kts 115°
2026-04-19 23:17 43.97276 -88.55812 811 ft 8 kts 181°
2026-04-19 23:18 43.97210 -88.55814 811 ft 11 kts 180°
2026-04-19 23:18 43.97121 -88.55814 811 ft 14 kts 178°
2026-04-19 23:18 43.97011 -88.55816 811 ft 17 kts 178°
2026-04-19 23:18 43.96882 -88.55818 811 ft 20 kts 180°
2026-04-19 23:19 43.96761 -88.55811 811 ft 12 kts 157°
2026-04-19 23:19 43.96748 -88.55778 811 ft 0 kts 87°
2026-04-19 23:20 43.96748 -88.55777 811 ft 0 kts 87°
2026-04-19 23:21 43.96749 -88.55718 811 ft 13 kts 97°
2026-04-19 23:21 43.96819 -88.55667 811 ft 26 kts 352°
2026-04-19 23:21 43.97271 -88.55662 815 ft 97 kts 359°
2026-04-19 23:21 43.97994 -88.55617 1062 ft 115 kts 359°
2026-04-19 23:22 43.98716 -88.55368 1596 ft 109 kts 24°
2026-04-19 23:22 43.99006 -88.54541 2124 ft 111 kts 112°
2026-04-19 23:22 43.98367 -88.53833 2375 ft 126 kts 164°
2026-04-19 23:22 43.97530 -88.53479 2899 ft 113 kts 174°
2026-04-19 23:23 43.96705 -88.53181 3364 ft 113 kts 174°
2026-04-19 23:23 43.95877 -88.52857 3782 ft 121 kts 174°
2026-04-19 23:23 43.94947 -88.52515 4013 ft 140 kts 174°
2026-04-19 23:23 43.93892 -88.52148 4299 ft 150 kts 174°
2026-04-19 23:24 43.92789 -88.51781 4571 ft 157 kts 174°
2026-04-19 23:24 43.91631 -88.51395 4847 ft 160 kts 174°
2026-04-19 23:24 43.90475 -88.51019 5115 ft 163 kts 174°
2026-04-19 23:24 43.89296 -88.50620 5387 ft 165 kts 173°
2026-04-19 23:25 43.88267 -88.49661 5655 ft 178 kts 130°
2026-04-19 23:25 43.87567 -88.48103 5930 ft 180 kts 122°
2026-04-19 23:25 43.86947 -88.46478 6198 ft 181 kts 119°
2026-04-19 23:25 43.86383 -88.44911 6452 ft 181 kts 119°
2026-04-19 23:26 43.85816 -88.43310 6713 ft 181 kts 119°
2026-04-19 23:26 43.85255 -88.41720 6971 ft 181 kts 120°
2026-04-19 23:26 43.84690 -88.40121 7231 ft 182 kts 120°
2026-04-19 23:26 43.84114 -88.38498 7495 ft 182 kts 120°
2026-04-19 23:27 43.83529 -88.36852 7762 ft 183 kts 121°
2026-04-19 23:27 43.82949 -88.35217 8027 ft 182 kts 121°
2026-04-19 23:27 43.82371 -88.33588 8285 ft 182 kts 123°
2026-04-19 23:27 43.81786 -88.31946 8543 ft 182 kts 123°
2026-04-19 23:28 43.81199 -88.30305 8802 ft 182 kts 123°
2026-04-19 23:28 43.80638 -88.28740 9049 ft 182 kts 124°
2026-04-19 23:28 43.80038 -88.27068 9313 ft 181 kts 124°
2026-04-19 23:28 43.79456 -88.25440 9571 ft 182 kts 124°
2026-04-19 23:29 43.78864 -88.23785 9829 ft 182 kts 124°
2026-04-19 23:29 43.78271 -88.22124 10089 ft 182 kts 125°
2026-04-19 23:29 43.77674 -88.20456 10354 ft 182 kts 126°
2026-04-19 23:29 43.77085 -88.18805 10620 ft 181 kts 126°
2026-04-19 23:30 43.76490 -88.17141 10893 ft 180 kts 127°
2026-04-19 23:30 43.75891 -88.15466 11172 ft 179 kts 127°
2026-04-19 23:30 43.75319 -88.13866 11438 ft 178 kts 128°
2026-04-19 23:30 43.74762 -88.12301 11792 ft 170 kts 129°
2026-04-19 23:31 43.74208 -88.10747 12010 ft 172 kts 130°
2026-04-19 23:31 43.73626 -88.09161 12234 ft 174 kts 130°
2026-04-19 23:31 43.73053 -88.07594 12469 ft 175 kts 130°
2026-04-19 23:31 43.72471 -88.05991 12704 ft 176 kts 130°
2026-04-19 23:32 43.71899 -88.04411 12931 ft 177 kts 130°
2026-04-19 23:32 43.71310 -88.02782 13162 ft 178 kts 129°
2026-04-19 23:32 43.70732 -88.01182 13386 ft 178 kts 129°
2026-04-19 23:32 43.70149 -87.99567 13610 ft 179 kts 129°
2026-04-19 23:33 43.69559 -87.97935 13831 ft 180 kts 129°
2026-04-19 23:33 43.68961 -87.96278 14053 ft 181 kts 129°
2026-04-19 23:33 43.68353 -87.94597 14276 ft 182 kts 129°
2026-04-19 23:33 43.67750 -87.92930 14493 ft 183 kts 129°
2026-04-19 23:34 43.67139 -87.91243 14710 ft 183 kts 129°
2026-04-19 23:34 43.66528 -87.89557 14923 ft 184 kts 129°
2026-04-19 23:34 43.65915 -87.87865 15134 ft 185 kts 129°
2026-04-19 23:34 43.65309 -87.86192 15341 ft 186 kts 129°
2026-04-19 23:35 43.64702 -87.84520 15543 ft 187 kts 129°
2026-04-19 23:35 43.64079 -87.82805 15749 ft 188 kts 129°
2026-04-19 23:35 43.63417 -87.81162 15946 ft 186 kts 134°
2026-04-19 23:35 43.62728 -87.79560 16148 ft 186 kts 134°
2026-04-19 23:36 43.62041 -87.77980 16338 ft 187 kts 134°
2026-04-19 23:36 43.61354 -87.76409 16528 ft 187 kts 134°
2026-04-19 23:36 43.60659 -87.74820 16714 ft 189 kts 134°
2026-04-19 23:36 43.59956 -87.73216 16916 ft 189 kts 134°
2026-04-19 23:37 43.59249 -87.71602 17117 ft 190 kts 134°
2026-04-19 23:37 43.58547 -87.70002 17295 ft 190 kts 134°
2026-04-19 23:37 43.57843 -87.68399 17454 ft 191 kts 134°
2026-04-19 23:37 43.57132 -87.66779 17609 ft 191 kts 134°
2026-04-19 23:38 43.56407 -87.65128 17756 ft 193 kts 134°
2026-04-19 23:38 43.55671 -87.63454 17912 ft 193 kts 134°
2026-04-19 23:38 43.54962 -87.61844 18056 ft 194 kts 134°
2026-04-19 23:38 43.54249 -87.60223 18204 ft 194 kts 134°
2026-04-19 23:39 43.53534 -87.58595 18349 ft 195 kts 134°
2026-04-19 23:39 43.52803 -87.56937 18489 ft 196 kts 134°
2026-04-19 23:39 43.52094 -87.55330 18627 ft 196 kts 134°
2026-04-19 23:39 43.51381 -87.53714 18768 ft 196 kts 134°
2026-04-19 23:40 43.50661 -87.52082 18904 ft 197 kts 134°
2026-04-19 23:40 43.49898 -87.50355 19049 ft 198 kts 134°
2026-04-19 23:40 43.49165 -87.48694 19181 ft 199 kts 134°
2026-04-19 23:40 43.48433 -87.47040 19315 ft 199 kts 134°
2026-04-19 23:41 43.47690 -87.45360 19447 ft 200 kts 134°
2026-04-19 23:41 43.46960 -87.43713 19576 ft 201 kts 134°
2026-04-19 23:41 43.46222 -87.42046 19709 ft 201 kts 134°
2026-04-19 23:41 43.45484 -87.40377 19839 ft 202 kts 134°
2026-04-19 23:42 43.44718 -87.38650 19974 ft 202 kts 134°
2026-04-19 23:42 43.43980 -87.36983 20092 ft 203 kts 134°
2026-04-19 23:42 43.43229 -87.35294 20215 ft 203 kts 134°
2026-04-19 23:42 43.42462 -87.33564 20333 ft 203 kts 134°
2026-04-19 23:43 43.41674 -87.31790 20447 ft 204 kts 134°
2026-04-19 23:43 43.40883 -87.30013 20550 ft 205 kts 134°
2026-04-19 23:43 43.40109 -87.28275 20656 ft 205 kts 134°
2026-04-19 23:43 43.39330 -87.26524 20766 ft 205 kts 134°
2026-04-19 23:44 43.38550 -87.24770 20869 ft 206 kts 134°
2026-04-19 23:44 43.37786 -87.23060 20965 ft 207 kts 134°
2026-04-19 23:44 43.37033 -87.21369 21072 ft 206 kts 134°
2026-04-19 23:44 43.36248 -87.19610 21168 ft 207 kts 134°
2026-04-19 23:45 43.35441 -87.17808 21213 ft 211 kts 134°
2026-04-19 23:45 43.34602 -87.15939 21217 ft 215 kts 134°
2026-04-19 23:45 43.33775 -87.14097 21216 ft 218 kts 134°
2026-04-19 23:45 43.32957 -87.12270 21215 ft 220 kts 134°
2026-04-19 23:46 43.32103 -87.10354 21213 ft 221 kts 134°
2026-04-19 23:46 43.31261 -87.08469 21212 ft 222 kts 134°
2026-04-19 23:46 43.30425 -87.06598 21211 ft 223 kts 134°
2026-04-19 23:46 43.29544 -87.04627 21210 ft 223 kts 134°
2026-04-19 23:47 43.28683 -87.02707 21209 ft 224 kts 134°
2026-04-19 23:47 43.27806 -87.00754 21209 ft 224 kts 134°
2026-04-19 23:47 43.26931 -86.98804 21208 ft 225 kts 134°
2026-04-19 23:47 43.26060 -86.96867 21208 ft 225 kts 135°
2026-04-19 23:48 43.25204 -86.94965 21208 ft 226 kts 135°
2026-04-19 23:48 43.24351 -86.93070 21208 ft 226 kts 135°
2026-04-19 23:48 43.23515 -86.91213 21208 ft 226 kts 135°
2026-04-19 23:48 43.22662 -86.89321 21208 ft 226 kts 135°
2026-04-19 23:49 43.21820 -86.87454 21209 ft 227 kts 135°
2026-04-19 23:49 43.20984 -86.85609 21209 ft 227 kts 135°
2026-04-19 23:49 43.20150 -86.83768 21209 ft 227 kts 135°
2026-04-19 23:49 43.19310 -86.81910 21210 ft 227 kts 135°
2026-04-19 23:50 43.18461 -86.80032 21210 ft 227 kts 135°
2026-04-19 23:50 43.17610 -86.78152 21210 ft 227 kts 135°
2026-04-19 23:50 43.16747 -86.76247 21210 ft 227 kts 135°
2026-04-19 23:50 43.15909 -86.74396 21210 ft 227 kts 135°
2026-04-19 23:51 43.15068 -86.72540 21210 ft 227 kts 135°
2026-04-19 23:51 43.14212 -86.70657 21210 ft 227 kts 135°
2026-04-19 23:51 43.13345 -86.68748 21210 ft 227 kts 135°
2026-04-19 23:51 43.12503 -86.66895 21210 ft 227 kts 135°
2026-04-19 23:52 43.11664 -86.65049 21210 ft 227 kts 135°
2026-04-19 23:52 43.10818 -86.63191 21211 ft 227 kts 135°
2026-04-19 23:52 43.09970 -86.61325 21211 ft 227 kts 135°
2026-04-19 23:52 43.09117 -86.59454 21211 ft 227 kts 135°
2026-04-19 23:53 43.08229 -86.57504 21211 ft 227 kts 135°
2026-04-19 23:53 43.07334 -86.55542 21211 ft 227 kts 135°
2026-04-19 23:53 43.06433 -86.53569 21211 ft 228 kts 135°
2026-04-19 23:53 43.05563 -86.51574 21211 ft 232 kts 130°
2026-04-19 23:54 43.04802 -86.49410 21212 ft 234 kts 127°
2026-04-19 23:54 43.04089 -86.47295 21212 ft 235 kts 127°
2026-04-19 23:54 43.03362 -86.45113 21212 ft 235 kts 127°
2026-04-19 23:54 43.02639 -86.42934 21212 ft 235 kts 127°
2026-04-19 23:55 43.01911 -86.40748 21212 ft 235 kts 127°
2026-04-19 23:55 43.01188 -86.38577 21212 ft 235 kts 127°
2026-04-19 23:55 43.00446 -86.36351 21212 ft 235 kts 127°
2026-04-19 23:55 42.99742 -86.34244 21207 ft 235 kts 127°
2026-04-19 23:56 42.99036 -86.32129 21203 ft 234 kts 127°
2026-04-19 23:56 42.98340 -86.30047 21203 ft 234 kts 127°
2026-04-19 23:56 42.97639 -86.27956 21203 ft 234 kts 127°
2026-04-19 23:56 42.96944 -86.25879 21203 ft 233 kts 127°
2026-04-19 23:57 42.96239 -86.23778 21204 ft 233 kts 127°
2026-04-19 23:57 42.95546 -86.21712 21204 ft 233 kts 127°
2026-04-19 23:57 42.94862 -86.19675 21204 ft 233 kts 127°
2026-04-19 23:57 42.94156 -86.17576 21204 ft 233 kts 127°
2026-04-19 23:58 42.93449 -86.15475 21204 ft 233 kts 127°
2026-04-19 23:58 42.92742 -86.13374 21204 ft 233 kts 127°
2026-04-19 23:58 42.92031 -86.11263 21205 ft 233 kts 127°
2026-04-19 23:58 42.91305 -86.09110 21205 ft 233 kts 127°
2026-04-19 23:59 42.90613 -86.07054 21205 ft 233 kts 127°
2026-04-19 23:59 42.89893 -86.04924 21207 ft 233 kts 127°
2026-04-19 23:59 42.89217 -86.02926 21212 ft 234 kts 127°
2026-04-19 23:59 42.88539 -86.00921 21213 ft 234 kts 127°
2026-04-20 00:00 42.87854 -85.98897 21213 ft 235 kts 127°
2026-04-20 00:00 42.87151 -85.96821 21213 ft 235 kts 127°
2026-04-20 00:00 42.86439 -85.94719 21213 ft 235 kts 127°
2026-04-20 00:00 42.85729 -85.92627 21213 ft 235 kts 127°
2026-04-20 00:01 42.85014 -85.90517 21212 ft 235 kts 127°
2026-04-20 00:01 42.84324 -85.88490 21210 ft 236 kts 127°
2026-04-20 00:01 42.82939 -85.84415 21204 ft 236 kts 127°
2026-04-20 00:02 42.82258 -85.82410 21201 ft 236 kts 127°
2026-04-20 00:02 42.81564 -85.80373 21198 ft 236 kts 127°
2026-04-20 00:02 42.80870 -85.78342 21195 ft 236 kts 127°
2026-04-20 00:02 42.80186 -85.76338 21192 ft 236 kts 127°
2026-04-20 00:03 42.79492 -85.74304 21189 ft 236 kts 127°
2026-04-20 00:03 42.78796 -85.72266 21186 ft 236 kts 127°
2026-04-20 00:03 42.78110 -85.70260 21184 ft 236 kts 127°
2026-04-20 00:03 42.77414 -85.68224 21180 ft 236 kts 127°
2026-04-20 00:04 42.76720 -85.66198 21179 ft 236 kts 127°
2026-04-20 00:04 42.76034 -85.64194 21178 ft 236 kts 127°
2026-04-20 00:04 42.75340 -85.62171 21179 ft 236 kts 127°
2026-04-20 00:04 42.74649 -85.60159 21179 ft 236 kts 127°
2026-04-20 00:05 42.73960 -85.58153 21179 ft 236 kts 127°
2026-04-20 00:05 42.73271 -85.56147 21179 ft 236 kts 127°
2026-04-20 00:05 42.72569 -85.54108 21179 ft 236 kts 127°
2026-04-20 00:05 42.71882 -85.52114 21179 ft 236 kts 127°
2026-04-20 00:06 42.71185 -85.50088 21180 ft 236 kts 127°
2026-04-20 00:06 42.70493 -85.48077 21180 ft 236 kts 127°
2026-04-20 00:06 42.69795 -85.46059 21180 ft 236 kts 127°
2026-04-20 00:06 42.69104 -85.44055 21180 ft 236 kts 127°
2026-04-20 00:07 42.68408 -85.42039 21180 ft 236 kts 127°
2026-04-20 00:07 42.67699 -85.39988 21180 ft 235 kts 127°
2026-04-20 00:07 42.66981 -85.37916 21181 ft 236 kts 127°
2026-04-20 00:07 42.66267 -85.35851 21181 ft 236 kts 127°
2026-04-20 00:08 42.65558 -85.33804 21174 ft 236 kts 128°
2026-04-20 00:08 42.64869 -85.31813 21171 ft 235 kts 128°
2026-04-20 00:08 42.64173 -85.29806 21171 ft 234 kts 128°
2026-04-20 00:08 42.63482 -85.27819 21172 ft 234 kts 128°
2026-04-20 00:09 42.62754 -85.25725 21172 ft 234 kts 128°
2026-04-20 00:09 42.62066 -85.23747 21172 ft 234 kts 128°
2026-04-20 00:09 42.61348 -85.21687 21172 ft 234 kts 128°
2026-04-20 00:09 42.60613 -85.19575 21172 ft 234 kts 128°
2026-04-20 00:10 42.59874 -85.17463 21171 ft 234 kts 128°
2026-04-20 00:10 42.59138 -85.15363 21170 ft 234 kts 127°
2026-04-20 00:10 42.58385 -85.13214 21168 ft 234 kts 127°
2026-04-20 00:10 42.57639 -85.11083 21167 ft 235 kts 127°
2026-04-20 00:11 42.56913 -85.09009 21165 ft 235 kts 126°
2026-04-20 00:11 42.56159 -85.06857 21172 ft 235 kts 126°
2026-04-20 00:11 42.55431 -85.04775 21172 ft 235 kts 126°
2026-04-20 00:11 42.54730 -85.02773 21171 ft 235 kts 125°
2026-04-20 00:12 42.54012 -85.00725 21170 ft 235 kts 125°
2026-04-20 00:12 42.53287 -84.98661 21168 ft 235 kts 124°
2026-04-20 00:12 42.52553 -84.96571 21167 ft 236 kts 124°
2026-04-20 00:12 42.51849 -84.94563 21167 ft 236 kts 124°
2026-04-20 00:13 42.51141 -84.92538 21167 ft 236 kts 124°
2026-04-20 00:13 42.50432 -84.90518 21167 ft 236 kts 124°
2026-04-20 00:13 42.49726 -84.88507 21168 ft 236 kts 124°
2026-04-20 00:13 42.49020 -84.86500 21168 ft 236 kts 124°
2026-04-20 00:14 42.48312 -84.84492 21168 ft 236 kts 124°
2026-04-20 00:14 42.47605 -84.82491 21168 ft 236 kts 124°
2026-04-20 00:14 42.46896 -84.80481 21168 ft 236 kts 124°
2026-04-20 00:14 42.46173 -84.78437 21168 ft 236 kts 124°
2026-04-20 00:15 42.45447 -84.76389 21167 ft 236 kts 124°
2026-04-20 00:15 42.44722 -84.74334 21167 ft 236 kts 124°
2026-04-20 00:15 42.43995 -84.72246 21167 ft 236 kts 123°
2026-04-20 00:15 42.43280 -84.70122 21166 ft 237 kts 123°
2026-04-20 00:16 42.42582 -84.68043 21166 ft 237 kts 123°
2026-04-20 00:16 42.41869 -84.65916 21167 ft 237 kts 123°
2026-04-20 00:16 42.41151 -84.63773 21166 ft 237 kts 123°
2026-04-20 00:16 42.40448 -84.61681 21167 ft 237 kts 123°
2026-04-20 00:17 42.39722 -84.59519 21167 ft 237 kts 122°
2026-04-20 00:17 42.38996 -84.57363 21167 ft 237 kts 122°
2026-04-20 00:17 42.38267 -84.55192 21168 ft 237 kts 123°
2026-04-20 00:17 42.37571 -84.53125 21168 ft 237 kts 122°
2026-04-20 00:18 42.36854 -84.50996 21168 ft 237 kts 123°
2026-04-20 00:18 42.36136 -84.48863 21168 ft 237 kts 123°
2026-04-20 00:18 42.35421 -84.46746 21168 ft 237 kts 123°
2026-04-20 00:18 42.34693 -84.44592 21168 ft 237 kts 122°
2026-04-20 00:19 42.33975 -84.42469 21167 ft 237 kts 123°
2026-04-20 00:19 42.33237 -84.40286 21167 ft 237 kts 123°
2026-04-20 00:19 42.32500 -84.38106 21167 ft 237 kts 123°
2026-04-20 00:19 42.31783 -84.35993 21166 ft 237 kts 123°
2026-04-20 00:20 42.31073 -84.33897 21161 ft 237 kts 123°
2026-04-20 00:20 42.30352 -84.31768 21158 ft 236 kts 123°
2026-04-20 00:20 42.29644 -84.29684 21158 ft 236 kts 123°
2026-04-20 00:20 42.28930 -84.27582 21158 ft 236 kts 123°
2026-04-20 00:21 42.28200 -84.25435 21159 ft 235 kts 123°
2026-04-20 00:21 42.27472 -84.23300 21159 ft 235 kts 123°
2026-04-20 00:21 42.26741 -84.21157 21158 ft 235 kts 123°
2026-04-20 00:21 42.26010 -84.19015 21156 ft 235 kts 123°
2026-04-20 00:22 42.25286 -84.16889 21155 ft 235 kts 123°
2026-04-20 00:22 42.24562 -84.14767 21152 ft 235 kts 123°
2026-04-20 00:22 42.23856 -84.12704 21151 ft 235 kts 123°
2026-04-20 00:22 42.23127 -84.10570 21148 ft 236 kts 123°
2026-04-20 00:23 42.22407 -84.08469 21146 ft 235 kts 123°
2026-04-20 00:23 42.21677 -84.06338 21145 ft 235 kts 123°
2026-04-20 00:23 42.20938 -84.04182 21143 ft 236 kts 123°
2026-04-20 00:23 42.20225 -84.02100 21142 ft 236 kts 123°
2026-04-20 00:24 42.19493 -83.99970 21141 ft 236 kts 123°
2026-04-20 00:24 42.18760 -83.97836 21141 ft 236 kts 123°
2026-04-20 00:24 42.18061 -83.95802 21141 ft 236 kts 123°
2026-04-20 00:24 42.17334 -83.93692 21141 ft 236 kts 123°
2026-04-20 00:25 42.16587 -83.91516 21141 ft 236 kts 123°
2026-04-20 00:25 42.15844 -83.89360 21141 ft 236 kts 123°
2026-04-20 00:25 42.15111 -83.87235 21141 ft 236 kts 123°
2026-04-20 00:25 42.14366 -83.85078 21141 ft 236 kts 123°
2026-04-20 00:26 42.13621 -83.82922 21141 ft 236 kts 123°
2026-04-20 00:26 42.12890 -83.80810 21140 ft 236 kts 123°
2026-04-20 00:26 42.12141 -83.78646 21139 ft 236 kts 123°
2026-04-20 00:26 42.11402 -83.76510 21138 ft 236 kts 123°
2026-04-20 00:27 42.10659 -83.74360 21137 ft 236 kts 123°
2026-04-20 00:27 42.09919 -83.72226 21137 ft 236 kts 123°
2026-04-20 00:27 42.09188 -83.70122 21138 ft 236 kts 123°
2026-04-20 00:27 42.08479 -83.68082 21138 ft 236 kts 123°
2026-04-20 00:28 42.07765 -83.66022 21138 ft 236 kts 123°
2026-04-20 00:28 42.07059 -83.63993 21139 ft 236 kts 123°
2026-04-20 00:28 42.06355 -83.61968 21138 ft 236 kts 123°
2026-04-20 00:28 42.05647 -83.59940 21139 ft 236 kts 123°
2026-04-20 00:29 42.04941 -83.57915 21139 ft 237 kts 123°
2026-04-20 00:29 42.04250 -83.55932 21139 ft 237 kts 123°
2026-04-20 00:29 42.03543 -83.53906 21139 ft 237 kts 123°
2026-04-20 00:29 42.02848 -83.51917 21139 ft 237 kts 123°
2026-04-20 00:30 42.02154 -83.49930 21139 ft 237 kts 123°
2026-04-20 00:30 42.01461 -83.47948 21139 ft 237 kts 123°
2026-04-20 00:30 42.00755 -83.45933 21139 ft 237 kts 123°
2026-04-20 00:30 42.00064 -83.43962 21140 ft 237 kts 123°
2026-04-20 00:31 41.99352 -83.41962 21140 ft 236 kts 124°
2026-04-20 00:31 41.98640 -83.39994 21140 ft 236 kts 124°
2026-04-20 00:31 41.97912 -83.37990 21140 ft 236 kts 124°
2026-04-20 00:31 41.97190 -83.36008 21140 ft 237 kts 124°
2026-04-20 00:32 41.96473 -83.34036 21135 ft 237 kts 125°
2026-04-20 00:32 41.95853 -83.31976 21133 ft 241 kts 114°
2026-04-20 00:32 41.95395 -83.29829 21132 ft 241 kts 112°
2026-04-20 00:32 41.94948 -83.27623 21132 ft 241 kts 112°
2026-04-20 00:33 41.94517 -83.25455 21132 ft 241 kts 112°
2026-04-20 00:33 41.94073 -83.23236 21132 ft 241 kts 112°
2026-04-20 00:33 41.93619 -83.20981 21130 ft 241 kts 112°
2026-04-20 00:33 41.93166 -83.18727 21125 ft 241 kts 112°
2026-04-20 00:34 41.92713 -83.16485 21122 ft 241 kts 112°
2026-04-20 00:34 41.92263 -83.14257 21120 ft 241 kts 112°
2026-04-20 00:34 41.91812 -83.12029 21114 ft 241 kts 112°
2026-04-20 00:34 41.91360 -83.09802 21110 ft 241 kts 112°
2026-04-20 00:35 41.90892 -83.07508 21003 ft 246 kts 112°
2026-04-20 00:35 41.90425 -83.05228 20792 ft 253 kts 112°
2026-04-20 00:35 41.89953 -83.02927 20538 ft 253 kts 112°
2026-04-20 00:35 41.89510 -83.00724 20255 ft 250 kts 112°
2026-04-20 00:36 41.89066 -82.98515 19955 ft 241 kts 113°
2026-04-20 00:36 41.88643 -82.96406 19655 ft 231 kts 114°
2026-04-20 00:36 41.88235 -82.94377 19356 ft 222 kts 114°
2026-04-20 00:36 41.87834 -82.92403 19056 ft 215 kts 115°
2026-04-20 00:37 41.87429 -82.90421 18746 ft 209 kts 116°
2026-04-20 00:37 41.87049 -82.88572 18451 ft 204 kts 116°
2026-04-20 00:37 41.86674 -82.86746 18153 ft 200 kts 117°
2026-04-20 00:37 41.86298 -82.84922 17850 ft 196 kts 117°
2026-04-20 00:38 41.85940 -82.83192 17558 ft 193 kts 117°
2026-04-20 00:38 41.85584 -82.81469 17261 ft 188 kts 117°
2026-04-20 00:38 41.85243 -82.79809 16961 ft 180 kts 118°
2026-04-20 00:38 41.84917 -82.78209 16660 ft 174 kts 118°
2026-04-20 00:39 41.84601 -82.76678 16364 ft 169 kts 119°
2026-04-20 00:39 41.84282 -82.75137 16059 ft 165 kts 119°
2026-04-20 00:39 41.83971 -82.73642 15759 ft 162 kts 119°
2026-04-20 00:39 41.83670 -82.72197 15464 ft 160 kts 119°
2026-04-20 00:40 41.83375 -82.70779 15172 ft 158 kts 120°
2026-04-20 00:40 41.83087 -82.69376 15047 ft 148 kts 119°
2026-04-20 00:40 41.82833 -82.68070 15076 ft 143 kts 120°
2026-04-20 00:40 41.82568 -82.66786 15082 ft 141 kts 121°
2026-04-20 00:41 41.82306 -82.65543 15048 ft 142 kts 121°
2026-04-20 00:41 41.82030 -82.64276 14946 ft 148 kts 121°
2026-04-20 00:41 41.81729 -82.62890 14832 ft 154 kts 120°
2026-04-20 00:41 41.81436 -82.61514 14716 ft 158 kts 119°
2026-04-20 00:42 41.81113 -82.59990 14516 ft 166 kts 118°
2026-04-20 00:42 41.80796 -82.58498 14262 ft 175 kts 118°
2026-04-20 00:42 41.80462 -82.56915 14002 ft 181 kts 117°
2026-04-20 00:42 41.80124 -82.55286 13742 ft 186 kts 117°
2026-04-20 00:43 41.79784 -82.53640 13482 ft 188 kts 116°
2026-04-20 00:43 41.79440 -82.51957 13298 ft 186 kts 116°
2026-04-20 00:43 41.79103 -82.50309 13123 ft 185 kts 116°
2026-04-20 00:43 41.78754 -82.48628 12946 ft 189 kts 116°
2026-04-20 00:44 41.78405 -82.46962 12770 ft 191 kts 116°
2026-04-20 00:44 41.78040 -82.45225 12586 ft 193 kts 116°
2026-04-20 00:44 41.77675 -82.43481 12401 ft 194 kts 116°
2026-04-20 00:44 41.77307 -82.41720 12214 ft 195 kts 116°
2026-04-20 00:45 41.76932 -82.39928 12025 ft 195 kts 116°
2026-04-20 00:45 41.76553 -82.38120 11833 ft 195 kts 116°
2026-04-20 00:45 41.76174 -82.36320 11644 ft 195 kts 115°
2026-04-20 00:45 41.75806 -82.34573 11459 ft 195 kts 116°
2026-04-20 00:46 41.75433 -82.32805 11269 ft 195 kts 116°
2026-04-20 00:46 41.75057 -82.31011 11078 ft 195 kts 115°
2026-04-20 00:46 41.74676 -82.29197 10885 ft 195 kts 115°
2026-04-20 00:46 41.74285 -82.27336 10689 ft 195 kts 115°
2026-04-20 00:47 41.73897 -82.25497 10496 ft 195 kts 115°
2026-04-20 00:47 41.73519 -82.23711 10309 ft 195 kts 115°
2026-04-20 00:47 41.73130 -82.21868 10115 ft 195 kts 114°
2026-04-20 00:47 41.72749 -82.20071 9927 ft 195 kts 114°
2026-04-20 00:48 41.72382 -82.18338 9746 ft 196 kts 114°
2026-04-20 00:48 41.72017 -82.16619 9566 ft 196 kts 114°
2026-04-20 00:48 41.71645 -82.14873 9383 ft 196 kts 114°
2026-04-20 00:48 41.71283 -82.13171 9204 ft 196 kts 113°
2026-04-20 00:49 41.70912 -82.11420 9021 ft 196 kts 113°
2026-04-20 00:49 41.70541 -82.09682 8839 ft 196 kts 113°
2026-04-20 00:49 41.70173 -82.07953 8657 ft 196 kts 112°
2026-04-20 00:49 41.69796 -82.06178 8470 ft 196 kts 112°
2026-04-20 00:50 41.69423 -82.04427 8286 ft 196 kts 113°
2026-04-20 00:50 41.69033 -82.02596 8094 ft 196 kts 112°
2026-04-20 00:50 41.68657 -82.00831 7908 ft 195 kts 112°
2026-04-20 00:50 41.68271 -81.99032 7718 ft 194 kts 112°
2026-04-20 00:51 41.67891 -81.97251 7530 ft 193 kts 112°
2026-04-20 00:51 41.67516 -81.95493 7345 ft 192 kts 113°
2026-04-20 00:51 41.67128 -81.93686 7154 ft 191 kts 113°
2026-04-20 00:51 41.66735 -81.91863 6962 ft 190 kts 113°
2026-04-20 00:52 41.66379 -81.90198 6786 ft 189 kts 113°
2026-04-20 00:52 41.66013 -81.88499 6606 ft 188 kts 113°
2026-04-20 00:52 41.65651 -81.86813 6428 ft 187 kts 113°
2026-04-20 00:52 41.65297 -81.85169 6253 ft 184 kts 114°
2026-04-20 00:53 41.64943 -81.83523 6079 ft 181 kts 114°
2026-04-20 00:53 41.64596 -81.81911 5909 ft 179 kts 114°
2026-04-20 00:53 41.64251 -81.80316 5741 ft 177 kts 114°
2026-04-20 00:53 41.63907 -81.78728 5573 ft 176 kts 114°
2026-04-20 00:54 41.63573 -81.77185 5410 ft 174 kts 114°
2026-04-20 00:54 41.63237 -81.75633 5247 ft 173 kts 114°
2026-04-20 00:54 41.62904 -81.74104 5102 ft 170 kts 115°
2026-04-20 00:54 41.62296 -81.72907 5043 ft 152 kts 148°
2026-04-20 00:55 41.61460 -81.72208 4955 ft 136 kts 163°
2026-04-20 00:55 41.60619 -81.71757 4862 ft 127 kts 169°
2026-04-20 00:55 41.59811 -81.71413 4768 ft 119 kts 172°
2026-04-20 00:55 41.59057 -81.71124 4674 ft 109 kts 174°
2026-04-20 00:56 41.58374 -81.70873 4589 ft 101 kts 175°
2026-04-20 00:56 41.57753 -81.70653 4510 ft 95 kts 176°
2026-04-20 00:56 41.57116 -81.70429 4427 ft 90 kts 177°
2026-04-20 00:56 41.56528 -81.70229 4322 ft 88 kts 177°
2026-04-20 00:57 41.55944 -81.70033 4212 ft 88 kts 178°
2026-04-20 00:57 41.55355 -81.69836 4099 ft 87 kts 178°
2026-04-20 00:57 41.54782 -81.69645 3979 ft 92 kts 177°
2026-04-20 00:57 41.54160 -81.69436 3978 ft 91 kts 177°
2026-04-20 00:58 41.53569 -81.69399 3939 ft 85 kts 204°
2026-04-20 00:58 41.53050 -81.69671 3965 ft 77 kts 210°
2026-04-20 00:58 41.52586 -81.69943 3883 ft 72 kts 212°
2026-04-20 00:58 41.52149 -81.70217 3822 ft 69 kts 213°
2026-04-20 00:59 41.51689 -81.70538 3633 ft 81 kts 214°
2026-04-20 00:59 41.51196 -81.70893 3506 ft 83 kts 214°
2026-04-20 00:59 41.50696 -81.71259 3384 ft 83 kts 215°
2026-04-20 00:59 41.50195 -81.71629 3259 ft 84 kts 215°
2026-04-20 01:00 41.49696 -81.71999 3135 ft 85 kts 215°
2026-04-20 01:00 41.49193 -81.72382 3044 ft 81 kts 217°
2026-04-20 01:00 41.48780 -81.72848 2936 ft 78 kts 230°
2026-04-20 01:00 41.48443 -81.73307 2873 ft 67 kts 233°
2026-04-20 01:01 41.48141 -81.73748 2789 ft 65 kts 234°
2026-04-20 01:01 41.47843 -81.74210 2701 ft 66 kts 235°
2026-04-20 01:01 41.47546 -81.74673 2619 ft 67 kts 236°
2026-04-20 01:01 41.47255 -81.75140 2542 ft 67 kts 236°
2026-04-20 01:02 41.46958 -81.75604 2459 ft 67 kts 236°
2026-04-20 01:02 41.46654 -81.76079 2364 ft 69 kts 237°
2026-04-20 01:02 41.46344 -81.76576 2273 ft 70 kts 238°
2026-04-20 01:02 41.46035 -81.77065 2185 ft 71 kts 236°
2026-04-20 01:03 41.45727 -81.77554 2099 ft 71 kts 238°
2026-04-20 01:03 41.45411 -81.78057 2008 ft 70 kts 239°
2026-04-20 01:03 41.45098 -81.78546 1907 ft 72 kts 239°
2026-04-20 01:03 41.44781 -81.79060 1816 ft 73 kts 237°
2026-04-20 01:04 41.44454 -81.79572 1726 ft 74 kts 237°
2026-04-20 01:04 41.44138 -81.80074 1617 ft 68 kts 242°
2026-04-20 01:04 41.43837 -81.80543 1450 ft 67 kts 242°
2026-04-20 01:04 41.43549 -81.81005 1316 ft 64 kts 241°
2026-04-20 01:05 41.43263 -81.81458 1222 ft 63 kts 242°
2026-04-20 01:05 41.42985 -81.81888 1199 ft 64 kts 244°
2026-04-20 01:05 41.42692 -81.82374 1170 ft 73 kts 241°
2026-04-20 01:05 41.42349 -81.82922 1082 ft 80 kts 238°
2026-04-20 01:06 41.41983 -81.83498 981 ft 85 kts 238°
2026-04-20 01:06 41.41606 -81.84083 863 ft 81 kts 236°
2026-04-20 01:06 41.41275 -81.84597 801 ft 63 kts 244°
2026-04-20 01:06 41.41038 -81.84989 794 ft 47 kts 228°
2026-04-20 01:07 41.40852 -81.85266 794 ft 36 kts 225°
2026-04-20 01:07 41.40674 -81.85349 794 ft 11 kts 149°
2026-04-20 01:07 41.40657 -81.85306 794 ft 0 kts 95°
2026-04-20 01:08 41.40655 -81.85290 794 ft 8 kts 98°
2026-04-20 01:08 41.40645 -81.85173 794 ft 12 kts 92°
2026-04-20 01:08 41.40642 -81.85060 794 ft 13 kts 96°
2026-04-20 01:08 41.40633 -81.84920 794 ft 19 kts 130°
2026-04-20 01:09 41.40517 -81.84908 794 ft 17 kts 180°
2026-04-20 01:09 41.40406 -81.84900 794 ft 14 kts 157°
2026-04-20 01:09 41.40339 -81.84813 794 ft 12 kts 134°
2026-04-20 01:09 41.40270 -81.84776 794 ft 11 kts 115°
2026-04-20 01:10 41.40271 -81.84671 794 ft 11 kts 68°
2026-04-20 01:10 41.40374 -81.84718 794 ft 0 kts